< < Back
Terminal Aerodrome Forecast


Current Version              Previous Versions:   1  2  3  4  5  6  7  8  9  

Terminal Aerodrome Forecast

518
FTUS44 KHUN 260520
TAFHSV
TAF
KHSV 260520Z 2606/2706 14005KT P6SM SCT100
     FM261600 24005KT P6SM SCT080
     FM262000 30010KT P6SM VCTS BKN050CB
     FM270000 36005KT P6SM BKN120=

Latest METAR

598
SAUS80 KWBC 270000 RRB
MTRHSV
METAR KHSV 262353Z 01008KT 10SM FEW045 SCT140 BKN250 27/18 A3000 RMK AO2
SLP150 T02720183 10333 20272 53003


USA.gov is the U.S. government's official web portal to all federal, state and local government web resources and services.